Weather Roundup
Issued by NWS

Home | Current Version | Previous Version | Text Only | Print | Product List | Glossary On
Versions: 1 2 3 4 5 6 7 8 9 10 11 12 13 14 15 16 17 18 19 20 21 22 23 24 25 26 27 28 29 30 31 32 33 34 35 36 37 38 39 40 41 42 43 44 45 46 47 48 49 50
000
NZUS93 KARX 140859
HRRWXR

CURRENT HOURLY OBSERVATIONS ACROSS
MUCH OF THE UPPER MISSISSIPPI VALLEY
NATIONAL WEATHER SERVICE LA CROSSE WI
300 AM CST SUN FEB 14 2016


...SOUTHEAST MINNESOTA...


CITY           SKY/WX    TMP DP  RH WIND       PRES   REMARKS
ROCHESTER      CLOUDY     9   0  67 SE15      30.19F WCI  -8
ROCHESTER/MAYO CLOUDY    10  -2  59 SE12      30.21F WCI  -5
WINONA         CLOUDY    10   0  61 SE9       30.30F WCI  -2
AUSTIN         FLURRIES  10   7  85 SE10      30.17F WCI  -3
ALBERT LEA     LGT SNOW  10   7  85 SE17      30.14F WCI  -7
DODGE CENTER   CLOUDY     9   1  72 SE15      30.16F WCI  -8
PRESTON        CLOUDY     8  -2  63 SE12      30.21F WCI  -7
OWATONNA       CLOUDY    12   3  67 SE14      30.16F WCI  -3
FARIBAULT      CLOUDY    12   1  62 SE10      30.19F WCI  -1
$$

...ELSEWHERE IN MINNESOTA...


CITY           SKY/WX    TMP DP  RH WIND       PRES   REMARKS
MINNEAPOLIS    CLOUDY    10  -3  55 E12       30.21F WCI  -5
INTNL FALLS    CLOUDY   -12 -19  71 SE8       30.12F WCI -29
DULUTH         CLOUDY    -2 -15  54 S6        30.19F WCI -14
RED WING       NOT AVBL
REDWOOD FALLS  CLOUDY    12   8  84 SE24G31   30.05F WCI  -8
MANKATO        CLOUDY    12   7  79 SE15      30.14F WCI  -4
WORTHINGTON    CLOUDY    10   7  85 SE18G24   30.00F WCI  -8
FAIRMONT       CLOUDY    12   7  79 SE18      30.07F WCI  -5
$$

...SOUTHWEST WISCONSIN...


CITY           SKY/WX    TMP DP  RH WIND       PRES   REMARKS
LA CROSSE      CLOUDY     7  -5  57 E7        30.32F WCI  -5
PRAIRIE DU CHI CLOUDY    10  -3  55 E7        30.32F WCI   0
BOSCOBEL       CLOUDY     7  -2  66 NE3       30.35F
LONE ROCK      NOT AVBL
PLATTEVILLE    CLOUDY    11   2  67 SE9       30.31F WCI  -1
FORT MC COY    CLOUDY    -7 -11  82 CALM      30.34F
VIROQUA        CLOUDY     6  -5  60 SE9       30.27F WCI  -8
WIS DELLS      CLOUDY    -3 -10  70 CALM      30.35F
$$

...ELSEWHERE IN WISCONSIN...


CITY           SKY/WX    TMP DP  RH WIND       PRES   REMARKS
MILWAUKEE      CLOUDY     4  -6  63 CALM      30.40F
MADISON        CLOUDY     5  -5  63 SE7       30.37F WCI  -7
GREEN BAY      PTCLDY    -8 -13  78 CALM      30.41F
EAU CLAIRE     NOT AVBL
BLACK RVR FLS  FAIR     -14 -21  73 CALM      30.34F
MEDFORD        CLOUDY    -7 -14  71 SE5       30.27F WCI -18
WAUSAU         CLOUDY   -11 -17  75 E3        30.31F
WIS RAPIDS     CLOUDY    -9 -15  75 SE5       30.35F WCI -20
MARSHFIELD     CLOUDY    -6 -13  71 E3        30.29F
RICE LAKE      CLOUDY    -2 -13  59 SE8       30.29F WCI -17
$$

...NORTHEAST IOWA...


CITY           SKY/WX    TMP DP  RH WIND       PRES   REMARKS
WATERLOO       CLOUDY    14   7  73 SE15      30.22F WCI  -1
DUBUQUE        CLOUDY    13   2  61 SE9       30.30F WCI   1
DECORAH        NOT AVBL
MASON CITY     FLURRIES  11   8  88 SE18G25   30.16F WCI  -7
CHARLES CITY   FLURRIES  12   9  85 SE15G22   30.21F WCI  -4
OELWEIN        MOCLDY    12   9  85 SE14      30.25F WCI  -3
$$

...ELSEWHERE IN IOWA...


CITY           SKY/WX    TMP DP  RH WIND       PRES   REMARKS
DES MOINES     CLOUDY    16   9  74 SE12G21   30.15F WCI   3
IOWA CITY      CLOUDY    16  12  84 SE15      30.31F WCI   1
FORT DODGE     CLOUDY    14   7  73 SE17G24   30.08F WCI  -3
MARSHALLTOWN   CLOUDY    15  10  80 SE20      30.18F WCI  -2
CEDAR RAPIDS   CLOUDY    16  10  77 SE14      30.26F WCI   2
$$

...NORTHERN ILLINOIS...


CITY           SKY/WX    TMP DP  RH WIND       PRES   REMARKS
CHICAGO-OHARE  CLOUDY    10   1  67 SE7       30.41F WCI  -1
CHICAGO-MIDWAY MOCLDY    13  -1  54 S10       30.43F WCI   0
MOLINE         CLOUDY    19   1  45 SE12      30.33F WCI   7
ROCKFORD       CLOUDY    13   2  61 SE7       30.40F WCI   3
PEORIA         LGT SNOW  16  10  77 SE7       30.38F WCI   6
$$

NOTE: "FAIR" INDICATES FEW OR NO CLOUDS BELOW 12,000 FEET WITH NO
SIGNIFICANT WEATHER AND/OR OBSTRUCTIONS TO VISIBILITY. WIND
SPEEDS ARE IN MILES-PER-HOUR.




USA.gov is the U.S. government's official web portal to all federal, state and local government web resources and services.